Content
SEND FEEDBACK

Daily
Averages
Monthly
Summary
United States of America

BUNCH, OKLAHOMA


Home > North America > United States > Oklahoma
Elevation: 880 feet     Latitude: 35 45N     Longitude: 094 43W

WEATHER
 
SELECT A DAY
Number of Records: 325,538;   Date Range: 3/30/01 - 7/26/14
 
SHARE

PRINT THIS DATA

[ ← Previous Day ]
WEATHER ALMANAC - FEBRUARY 13, 2013
[ Next Day → ]
[ °C ]   °F
Weather ElementAverageHighLow
Temperature38.5 °F51.8 °F (3:35 pm)30.2 °F (11:55 pm)
Dewpoint33 °F35.6 °F (8:55 am)30.2 °F (9:55 pm)
Humidity83.3 %100 % (12:35 am)47 % (4:15 pm)
Barometer30.00 in30.06 in (8:35 am)29.96 in (5:15 pm)
Wind Speed4.3 mph11.5 mph (11:35 am)
Weather ElementAverage
Visibility8.8 mi
Wind DirectionS (174.7 °)

Weather ElementTotal
Precipitation---
Heating Degree Days24 (Base 65)
Averaged from 70 records on February 13, 2013
WEATHER CONDITIONS BREAKOUT
WIND DIRECTION BREAKOUT
WEATHER BY HOUR - FEBRUARY 13, 2013
[ °C ]   °F
Local TimeTemperatureDewpointHumidityBarometerVisibilityWind DirectionWind SpeedGust SpeedPrecipitationEventsConditions
12:35 AM32.0 °F32.0 °F100 %29.99 in10.0 miCalmMostly Cloudy
12:55 AM32.0 °F32.0 °F100 %29.99 in10.0 miCalmScattered Clouds
1:15 AM32.0 °F32.0 °F100 %29.99 in10.0 miNNW (340°)3.5 mphMostly Cloudy
1:35 AM32.0 °F32.0 °F100 %30.00 in10.0 miNW (310°)3.5 mphOvercast
1:55 AM32.0 °F32.0 °F100 %30.00 in10.0 miNW (310°)3.5 mphOvercast
2:15 AM33.8 °F32.0 °F93 %30.00 in7.0 miNW (320°)4.6 mphOvercast
2:35 AM32.0 °F32.0 °F100 %30.00 in7.0 miCalmOvercast
2:55 AM32.0 °F32.0 °F100 %29.99 in7.0 miCalmOvercast
3:15 AM33.8 °F32.0 °F93 %29.99 in5.0 miCalmOvercast
3:35 AM33.8 °F32.0 °F93 %29.99 in7.0 miNW (320°)3.5 mphOvercast
3:55 AM33.8 °F32.0 °F93 %30.00 in7.0 miWNW (300°)6.9 mphOvercast
4:15 AM33.8 °F32.0 °F93 %30.00 in7.0 miNW (320°)6.9 mphOvercast
4:35 AM33.8 °F33.8 °F100 %30.00 in7.0 miNW (310°)4.6 mphOvercast
4:55 AM33.8 °F33.8 °F100 %30.01 in7.0 miWNW (300°)4.6 mphOvercast
5:15 AM33.8 °F33.8 °F100 %30.01 in7.0 miWNW (290°)5.8 mphOvercast
5:35 AM33.8 °F33.8 °F100 %30.01 in7.0 miWNW (290°)5.8 mphOvercast
6:15 AM33.8 °F33.8 °F100 %30.02 in5.0 miWest (270°)4.6 mphOvercast
6:35 AM33.8 °F33.8 °F100 %30.02 in7.0 miWest (270°)4.6 mphOvercast
6:55 AM33.8 °F33.8 °F100 %30.03 in5.0 miWest (270°)9.2 mphOvercast
7:15 AM33.8 °F33.8 °F100 %30.04 in4.0 miWest (270°)5.8 mphOvercast
7:35 AM33.8 °F33.8 °F100 %30.04 in2.5 miWest (260°)3.5 mphOvercast
7:55 AM33.8 °F33.8 °F100 %30.05 in3.0 miWSW (250°)4.6 mphOvercast
8:15 AM33.8 °F33.8 °F100 %30.05 in3.0 miWSW (240°)6.9 mphOvercast
8:35 AM33.8 °F33.8 °F100 %30.06 in4.0 miWSW (240°)5.8 mphOvercast
8:55 AM35.6 °F35.6 °F100 %30.06 in5.0 miSW (230°)5.8 mphOvercast
9:15 AM35.6 °F33.8 °F93 %30.06 in10.0 miWSW (250°)5.8 mphOvercast
9:35 AM35.6 °F35.6 °F100 %30.06 in10.0 miWSW (240°)6.9 mphOvercast
9:55 AM37.4 °F33.8 °F87 %30.05 in10.0 miWSW (240°)4.6 mphOvercast
10:15 AM37.4 °F33.8 °F87 %30.05 in10.0 miSW (230°)3.5 mphMostly Cloudy
10:35 AM37.4 °F33.8 °F87 %30.05 in10.0 miWSW (240°)9.2 mphScattered Clouds
10:55 AM41.0 °F35.6 °F81 %30.06 in10.0 miSW (230°)9.2 mphScattered Clouds
11:15 AM44.6 °F35.6 °F71 %30.04 in10.0 miWSW (250°)5.8 mphMostly Cloudy
11:35 AM42.8 °F35.6 °F76 %30.04 in10.0 miWest (260°)11.5 mphScattered Clouds
11:55 AM44.6 °F35.6 °F71 %30.04 in10.0 miWest (260°)10.4 mphScattered Clouds
12:15 PM44.6 °F35.6 °F71 %30.04 in10.0 miWest (270°)11.5 mphScattered Clouds
12:35 PM44.6 °F35.6 °F71 %30.03 in10.0 miWest (270°)10.4 mphScattered Clouds
12:55 PM44.6 °F35.6 °F71 %30.02 in10.0 miWest (260°)9.2 mphClear
1:15 PM46.4 °F35.6 °F66 %30.02 in10.0 miWSW (250°)5.8 mphClear
1:35 PM46.4 °F35.6 °F66 %30.01 in10.0 miWSW (250°)8.1 mphClear
1:55 PM48.2 °F35.6 °F62 %30.00 in10.0 miWest (270°)10.4 mphClear
2:15 PM50.0 °F33.8 °F54 %29.99 in10.0 miWSW (250°)9.2 mphClear
2:35 PM50.0 °F32.0 °F50 %29.98 in10.0 miWSW (250°)4.6 mphClear
2:55 PM50.0 °F32.0 °F50 %29.98 in10.0 miWest (270°)5.8 mphClear
3:15 PM50.0 °F32.0 °F50 %29.98 in10.0 miWest (260°)6.9 mphClear
3:35 PM51.8 °F33.8 °F50 %29.98 in10.0 miWSW (240°)9.2 mphClear
3:55 PM51.8 °F33.8 °F50 %29.97 in10.0 miWSW (250°)8.1 mphClear
4:15 PM51.8 °F32.0 °F47 %29.97 in10.0 miWSW (250°)5.8 mphClear
4:35 PM51.8 °F32.0 °F47 %29.97 in10.0 miSW (230°)6.9 mphClear
4:55 PM50.0 °F32.0 °F50 %29.97 in10.0 miWSW (250°)6.9 mphClear
5:15 PM50.0 °F32.0 °F50 %29.96 in10.0 miWest (260°)5.8 mphClear
5:35 PM50.0 °F32.0 °F50 %29.96 in10.0 miWSW (240°)4.6 mphClear
5:55 PM46.4 °F32.0 °F57 %29.96 in10.0 miCalmClear
6:15 PM44.6 °F32.0 °F61 %29.97 in10.0 miCalmClear
6:35 PM44.6 °F32.0 °F61 %29.97 in10.0 miCalmClear
6:55 PM42.8 °F32.0 °F66 %29.97 in10.0 miCalmClear
7:15 PM37.4 °F32.0 °F81 %29.97 in10.0 miCalmClear
7:35 PM35.6 °F32.0 °F87 %29.97 in10.0 miCalmClear
7:55 PM33.8 °F32.0 °F93 %29.97 in10.0 miCalmClear
8:15 PM33.8 °F32.0 °F93 %29.97 in10.0 miCalmClear
8:35 PM33.8 °F32.0 °F93 %29.98 in10.0 miCalmClear
8:55 PM32.0 °F32.0 °F100 %29.98 in10.0 miCalmClear
9:15 PM32.0 °F32.0 °F100 %29.98 in10.0 miCalmClear
9:35 PM32.0 °F32.0 °F100 %29.98 in10.0 miCalmClear
9:55 PM32.0 °F30.2 °F93 %29.98 in10.0 miCalmClear
10:15 PM32.0 °F30.2 °F93 %29.99 in10.0 miCalmClear
10:35 PM32.0 °F30.2 °F93 %29.99 in10.0 miCalmClear
10:55 PM32.0 °F32.0 °F100 %29.99 in10.0 miCalmClear
11:15 PM32.0 °F30.2 °F93 %29.99 in10.0 miCalmClear
11:35 PM32.0 °F30.2 °F93 %29.99 in10.0 miCalmClear
11:55 PM30.2 °F30.2 °F100 %29.99 in10.0 miCalmClear
Hourly data recorded from KTQH, located miles away from Bunch, Oklahoma







STORIES FROM OUR PARTNERS